Showing default

YAHSAT 1A, 37393

Orbit data source: Space-Track

YAHSAT 1A, 37393 is a payload satellite owned by Yahsat (AE) in GEO that was launched on Fri, 22 Apr 2011 UTC via an ARIANE 5ECA launch vehicle from the French Guiana (FRGUI). Payload-class satellites include a variety of spacecraft equipped with specific instruments for various scientific and technological missions. These include communications satellites like Starlink; space stations such as the ISS; scientific satellites like the Hubble; Earth observation satellites from companies like Planet Labs, Umbra, and HawkEye 360; GPS; miniature CubeSats for education and research; and military/defense satellites.

Not visible in the next 10 days
Identifier
37393, 2011-016B
Orbit
GEO
Country
Flag of AEAE / UAE
Related business
Manufacturer
Astrium/Toulouse
Mission
Operational Commercial Communications
Bus & Motor
EUROSTAR 3000, R-4D
Mass
5,935 kg wet, ~3,000 kg dry
Launch date (UTC)
2011-04-22 (15 years ago)
Launch vehicle
ARIANE 5ECA
Launch site
French Guiana (FRGUI)
Object type
Payload
Rocket body
Debris
Shape & HBR
Box + 2 Pan, 15.2 m
Radar Cross Section
29.709 m², Large (>1 m²)

Expand to show TLE details & history
Last TLE update: 3 days ago

TLE from 3 days ago
0 YAHSAT 1A
1 37393U 11016B   26155.07638998  .00000000  00000-0  00000-0 0  9993
2 37393   0.0153 345.0828 0003287  96.7036 250.7338  1.00272716 42276
Epoch: 2026-06-04T01:50Z
TLE epoch observation values (Epoch: 2026-06-04T01:50:00.094Z)
Latitude
-0.00587°
Longitude
52.4534°
Altitude
35,790.412 km
Speed
3.074 km/s
True Right ascension
22h 09m 55s
True Declination
0° 00' 21"
Sunlit
Object was in daylight at epoch
Visualization orbit readout
Latitude
Unknown
Longitude
Unknown
Altitude
Unknown
Speed
Unknown
Apparent Right ascension
Unknown
Apparent Declination
Unknown
Sunlit
N/A
Visualization observer readout
Local Sidereal Time
02:33:20
Azimuth
Unknown
Elevation
Unknown
Doppler factor
Unknown
Orbital elements
Apogee altitude
35,801.264 km
Perigee altitude
35,773.545 km
Semi-major axis
42,165.541 km
Eccentricity
0.00033
Inclination
0.0153°
RAAN
345.0828°
Arg. of periapsis
96.7036°
True anomaly
250.69825°
Mean anomaly
250.7338°
Eccentric anomaly
250.71602°
Mean motion
0.25067 °/min
Orbital period
1,436.14 mins
BSTAR
0
Loading maneuver chart data...
Computing Atmospheric mass density...
Loading historical data...
Loading historical data...
Loading historical data...
Loading historical data...
Loading historical data...
Loading historical data...
Loading historical data...
Other satellites on launch #16 in the year 2011 (2011-04-22 UTC)

Documentation

Showing up to 5 results
|